FW1737 Weather Reports


Display with metric or nautical units.
time (UTC)temp
F
wind
direction
speed
MPH
gust
MPH
rain 1hr
in
rain 24hr
in
rain mn
in
humidity
%
barometer
mb
20260901164549 66 294 0.0 2.0 0.00 0.00 0.00 82 1018.4
20260901163043 66 232 0.0 5.0 0.00 0.00 0.00 78 1018.2
20260901161544 67 200 5.0 7.0 0.00 0.00 0.00 74 1018.0
20260901160039 67 216 2.0 4.0 0.00 0.00 0.00 74 1018.1
20260901154538 67 119 0.0 2.0 0.00 0.00 0.00 73 1018.0
20260901153037 67 118 0.0 2.0 0.00 0.00 0.00 74 1018.2
20260901151542 67 66 1.0 4.0 0.00 0.00 0.00 73 1018.3
20260901150039 67 101 0.0 3.0 0.00 0.00 0.00 73 1018.4
20260901144537 68 125 0.0 1.0 0.00 0.00 0.00 73 1018.4
20260901143034 68 147 1.0 4.0 0.00 0.00 0.00 68 1018.4
20260901141532 67 271 0.0 2.0 0.00 0.00 0.00 75 1018.5
20260901140032 66 186 0.0 3.0 0.00 0.00 0.00 79 1018.5
20260901134534 65 215 0.0 2.0 0.00 0.00 0.00 80 1018.2
20260901133025 64 227 0.0 2.0 0.00 0.00 0.00 81 1018.3
20260901131521 63 227 0.0 3.0 0.00 0.00 0.00 83 1018.3
20260901130018 62 229 1.0 3.0 0.00 0.00 0.00 90 1018.2
20260901124515 61 225 1.0 3.0 0.00 0.00 0.00 91 1018.3
20260901123019 61 214 0.0 0.0 0.00 0.00 0.00 94 1018.3
20260901121508 59 214 0.0 0.0 0.00 0.00 0.00 96 1018.2
20260901120005 58 214 0.0 0.0 0.00 0.00 0.00 97 1018.2
20260901114501 57 214 0.0 0.0 0.00 0.00 0.00 98 1018.2
20260901113105 56 214 0.0 0.0 0.00 0.00 0.00 98 1018.2
20260901111556 55 214 0.0 0.0 0.00 0.00 0.00 98 1018.1
20260901110103 54 214 0.0 0.0 0.00 0.00 0.00 100 1018.1
20260901104558 52 215 0.0 0.0 0.00 0.00 0.00 100 1018.0
20260901103048 50 215 0.0 0.0 0.00 0.00 0.00 100 1018.0
20260901101547 48 215 0.0 0.0 0.00 0.00 0.00 100 1017.9
20260901100059 46 215 0.0 0.0 0.00 0.00 0.00 100 1017.8
20260901094549 46 215 0.0 0.0 0.00 0.00 0.00 99 1017.5
20260901093050 47 216 0.0 2.0 0.00 0.00 0.00 100 1017.5
20260901091541 46 216 1.0 3.0 0.00 0.00 0.00 100 1017.5
20260901090041 46 216 0.0 0.0 0.00 0.00 0.00 100 1017.3
20260901084539 46 216 0.0 0.0 0.00 0.00 0.00 100 1017.1
20260901083038 47 216 0.0 0.0 0.00 0.00 0.00 100 1017.3
20260901081536 47 216 0.0 0.0 0.00 0.00 0.00 100 1017.1
20260901080035 46 216 1.0 4.0 0.00 0.00 0.00 100 1017.1
20260901074535 46 215 0.0 0.0 0.00 0.00 0.00 100 1017.0
20260901073032 46 215 0.0 0.0 0.00 0.00 0.00 99 1016.9
20260901071531 46 215 0.0 0.0 0.00 0.00 0.00 99 1016.9
20260901070031 46 215 0.0 0.0 0.00 0.00 0.00 99 1016.9
20260901064535 46 215 0.0 0.0 0.00 0.00 0.00 99 1016.7
20260901063031 47 215 0.0 0.0 0.00 0.00 0.00 99 1016.8
20260901061524 48 215 0.0 0.0 0.00 0.00 0.00 99 1016.8
20260901060022 48 215 0.0 4.0 0.00 0.00 0.00 99 1016.8
20260901054522 48 215 0.0 0.0 0.00 0.00 0.00 99 1016.6
20260901053018 48 215 0.0 0.0 0.00 0.00 0.00 99 1016.6
20260901051517 48 215 0.0 0.0 0.00 0.00 0.00 98 1016.6
20260901050017 48 215 0.0 2.0 0.00 0.00 0.00 98 1016.5
20260901044512 50 216 0.0 2.0 0.00 0.00 0.00 98 1016.4
20260901043011 50 216 0.0 1.0 0.00 0.00 0.00 98 1016.3
20260901041510 50 216 0.0 2.0 0.00 0.00 0.00 98 1016.3
20260901040015 50 216 0.0 3.0 0.00 0.00 0.00 97 1016.3
20260901034506 51 218 3.0 5.0 0.00 0.00 0.00 97 1016.2
20260901033003 51 224 3.0 5.0 0.00 0.00 0.00 98 1016.1
20260901031502 51 288 0.0 0.0 0.00 0.00 0.00 96 1016.0
20260901030059 51 288 0.0 0.0 0.00 0.00 0.00 96 1016.0
20260901024607 51 288 0.0 1.0 0.00 0.00 0.00 96 1015.8
20260901023058 51 287 0.0 0.0 0.00 0.00 0.00 95 1015.8
20260901021556 52 287 0.0 0.0 0.00 0.00 0.00 93 1015.7
20260901020050 53 288 0.0 2.0 0.00 0.00 0.00 90 1015.7
20260901014552 55 287 0.0 3.0 0.00 0.00 0.00 90 1015.6
20260901013046 56 285 0.0 4.0 0.00 0.00 0.00 89 1015.7
20260901011544 56 297 1.0 7.0 0.00 0.00 0.00 89 1015.7
20260901010045 56 237 1.0 4.0 0.00 0.00 0.00 88 1015.7
20260901004542 56 294 1.0 4.0 0.00 0.00 0.00 87 1015.7
20260901003040 57 298 1.0 4.0 0.00 0.00 0.00 87 1015.5
20260901001538 57 279 0.0 5.0 0.00 0.00 0.00 86 1015.5
20260901000038 58 258 1.0 4.0 0.00 0.00 0.00 84 1015.1
20260831234533 59 271 0.0 4.0 0.00 0.00 0.00 82 1015.3
20260831233032 59 279 4.0 9.0 0.00 0.00 0.00 81 1015.1
20260831231531 60 304 0.0 9.0 0.00 0.00 0.00 80 1015.2
20260831230031 60 274 3.0 11.0 0.00 0.00 0.00 80 1015.2
20260831224524 60 345 6.0 12.0 0.00 0.00 0.00 79 1014.8
20260831223022 61 307 2.0 9.0 0.00 0.00 0.00 79 1014.5
20260831221531 62 273 0.0 11.0 0.00 0.00 0.00 79 1014.6
20260831220020 62 251 4.0 12.0 0.00 0.00 0.00 78 1014.5
20260831214533 62 290 3.0 15.0 0.00 0.00 0.00 78 1014.4
20260831213018 63 319 3.0 8.0 0.00 0.00 0.00 79 1014.3
20260831211521 63 265 4.0 13.0 0.00 0.00 0.00 78 1014.1
20260831210015 63 326 6.0 12.0 0.00 0.00 0.00 77 1013.9
20260831204514 64 247 6.0 17.0 0.00 0.00 0.00 76 1013.7
20260831203013 64 229 4.0 16.0 0.00 0.00 0.00 77 1013.5
20260831201516 65 311 3.0 14.0 0.00 0.00 0.00 74 1013.3
20260831200016 65 331 5.0 10.0 0.00 0.00 0.00 74 1013.1
20260831194509 66 325 4.0 15.0 0.00 0.00 0.00 74 1013.1
20260831193008 66 28 4.0 10.0 0.00 0.00 0.00 75 1013.0
20260831191506 67 266 3.0 11.0 0.00 0.00 0.00 73 1012.8
20260831190006 66 336 4.0 14.0 0.00 0.00 0.00 75 1012.6
20260831184506 67 52 2.0 17.0 0.00 0.00 0.00 73 1012.2
20260831183001 68 278 7.0 14.0 0.00 0.00 0.00 69 1012.2
20260831181500 66 298 6.0 16.0 0.00 0.00 0.00 74 1012.2
20260831180059 67 283 6.0 11.0 0.00 0.00 0.00 74 1012.0
20260831174608 67 290 5.0 14.0 0.00 0.00 0.00 72 1011.9
20260831173057 67 247 6.0 18.0 0.00 0.00 0.00 70 1011.8
20260831171555 68 350 7.0 20.0 0.00 0.00 0.00 70 1011.5
20260831170054 69 288 10.0 20.0 0.00 0.00 0.00 69 1011.3